Wind_Speed
12 11 13 14 15 19 21 20 19 20 20 17 14 13 13 12 10 12 14 14 15 13 12 14 13 13 13 13 13 12 12 13 13 13 12 13 14 14 15 15 15 16 15 17 22 24 24 24 23 22 21 22 23 22 22 22 22 21 21 20 20 20 19 19 18 18 17 17 16 16 17 16 15 15 14 14 14 13 12 11 11 11 10 11 12 12
13 13 15 18 19 21 21 22 21 21 22 18 14 12 12 13 11 12 14 16 15 12 11 14 14 15 14 13 14 14 14 14 14 14 13 14 15 14 15 17 16 15 14 16 20 22 25 25 24 23 22 23 24 24 24 24 23 22 21 21 21 20 20 20 19 18 18 18 17 17 17 16 15 15 15 14 14 13 12 10 10 10 10 11 11 11
13 14 18 20 20 20 20 22 23 23 22 17 13 12 11 11 11 12 14 18 14 9 9 14 14 13 14 14 14 15 14 13 14 14 13 14 14 14 15 16 16 15 15 16 18 21 25 26 26 25 23 24 25 24 24 24 24 23 23 22 21 21 21 21 20 19 19 18 17 16 15 15 15 14 13 12 11 11 11 10 10 10 10 11 10 8
12 14 19 20 20 21 22 22 24 21 18 16 14 11 10 12 12 9 9 15 14 9 9 12 12 10 13 14 14 15 14 13 14 15 14 14 14 15 16 16 16 17 17 17 18 20 23 25 27 26 24 25 25 25 25 25 25 24 24 23 23 22 21 21 21 21 20 18 17 16 15 14 13 12 11 11 10 10 11 11 11 11 10 11 10 7
14 14 18 21 21 23 23 22 22 18 14 16 17 14 12 14 16 10 9 12 11 11 11 11 10 9 12 14 14 14 14 15 15 16 15 14 15 15 16 16 17 18 17 18 19 19 20 22 26 27 26 26 26 26 26 26 26 25 25 25 24 23 22 21 21 21 20 18 17 16 15 14 13 12 11 11 11 11 11 11 11 11 10 9 9 7
16 14 16 21 21 22 23 21 21 17 13 16 19 18 17 15 17 15 12 12 9 11 13 13 9 8 12 15 14 12 14 16 15 15 16 14 14 15 15 16 17 18 18 18 19 19 19 22 25 28 28 27 26 26 26 27 27 25 25 25 25 23 22 22 21 21 21 19 18 17 16 16 15 14 13 13 12 11 11 11 11 11 10 8 7 7
12 15 16 21 22 23 23 19 21 21 14 13 17 20 21 18 17 17 14 12 9 9 12 14 11 8 10 14 15 14 15 17 16 16 17 14 14 15 15 15 16 18 18 18 19 20 20 22 24 26 29 29 27 27 27 26 26 26 25 25 25 24 23 22 22 22 21 20 19 19 18 17 15 14 13 13 12 11 11 10 10 10 10 9 8 7
12 18 19 21 23 21 18 17 20 22 15 12 16 21 22 21 20 18 15 11 9 9 11 15 13 9 8 11 15 17 16 17 17 17 16 14 16 17 16 16 17 18 19 18 19 20 21 22 23 26 29 30 28 27 27 26 26 27 26 25 26 25 23 22 22 23 22 21 19 19 17 15 15 14 13 12 12 11 10 9 8 8 8 9 8 7
14 20 21 21 19 16 17 18 20 21 17 15 18 20 20 21 21 19 15 10 10 10 10 14 15 11 8 9 12 16 18 18 18 17 17 18 19 18 17 18 19 19 20 19 20 21 21 22 25 28 29 30 29 28 27 27 26 26 27 26 25 25 24 23 23 23 23 22 19 19 17 15 14 14 13 12 12 11 10 9 8 7 7 8 8 7
13 17 20 18 15 15 17 18 20 21 17 15 19 20 18 18 19 19 15 11 11 11 11 14 15 10 8 9 11 13 14 15 15 15 16 17 16 15 15 17 19 19 19 19 20 21 22 24 27 28 29 30 30 28 28 27 26 26 27 26 26 26 25 24 23 23 23 23 20 19 18 17 15 14 13 12 11 10 10 9 9 8 8 8 8 8
12 14 16 15 14 15 16 16 20 23 19 16 17 18 17 16 15 14 13 11 10 10 14 18 19 14 10 10 11 11 12 13 13 12 13 13 13 15 16 16 19 18 17 18 19 20 22 25 28 28 29 30 29 28 28 28 27 26 27 27 27 26 25 24 24 24 24 23 22 20 18 18 17 15 14 13 12 11 11 11 11 11 10 9 8 8
15 13 13 13 15 15 16 18 20 22 21 18 15 14 15 13 10 10 11 12 12 11 15 20 22 19 13 10 10 13 17 16 13 12 14 15 16 17 17 17 18 17 16 18 18 19 20 22 25 26 28 30 30 29 29 29 28 27 27 28 28 27 26 25 25 25 24 23 22 21 19 19 18 17 15 14 13 14 13 12 12 12 11 10 9 9
16 15 13 13 16 18 17 16 16 18 19 17 14 13 14 11 8 10 11 12 12 12 14 18 20 18 13 12 13 15 17 17 15 14 16 17 19 19 18 18 17 17 18 18 18 18 19 19 20 23 26 29 30 31 31 30 29 28 28 28 29 29 28 26 25 25 25 24 23 22 21 20 19 18 16 15 15 15 14 14 13 12 12 11 11 11
12 16 18 16 14 18 19 14 13 14 15 17 15 13 13 12 10 11 12 12 12 12 15 17 16 14 11 13 17 17 16 15 15 17 17 16 16 18 19 16 14 15 17 17 18 19 19 19 20 22 26 29 30 32 32 31 30 29 28 29 29 29 29 27 26 26 25 25 23 22 22 20 20 19 17 17 16 16 16 15 14 13 13 13 12 12
12 13 17 18 12 15 21 19 16 14 14 17 17 15 15 13 11 11 11 11 12 12 15 17 14 11 10 11 14 17 17 14 12 15 16 14 14 12 15 15 13 15 17 17 19 19 20 21 21 23 27 29 30 32 33 31 31 29 28 29 29 29 29 28 27 26 26 25 24 23 22 21 20 19 18 17 17 17 17 16 15 15 14 14 13 13
14 11 14 20 16 17 22 21 19 17 15 14 14 15 16 14 12 11 11 12 13 12 12 13 11 9 10 10 9 11 15 16 14 15 17 17 16 11 9 13 13 14 15 17 19 20 21 22 22 25 28 30 31 32 33 32 32 31 29 29 30 29 29 28 28 27 26 25 25 24 23 23 21 20 19 18 18 18 18 18 17 17 16 15 13 13
12 10 13 20 20 20 20 19 21 19 13 10 12 17 16 15 15 13 12 13 14 13 11 11 11 11 13 13 11 12 14 15 15 17 19 19 16 11 8 11 14 15 17 19 20 20 21 21 22 26 29 30 32 32 33 33 33 33 31 30 31 30 29 29 28 27 26 25 25 24 24 23 23 22 21 19 19 19 19 18 18 18 17 15 14 12
9 9 12 19 21 21 18 19 23 23 17 10 12 17 16 16 17 13 11 12 13 13 11 13 17 14 12 10 10 16 18 15 15 18 19 19 15 12 11 12 14 16 17 20 21 19 19 21 22 26 30 32 33 33 34 34 34 34 33 31 32 31 30 30 29 28 27 26 25 25 25 25 24 24 23 21 19 18 18 18 18 18 16 15 13 12
10 8 11 18 19 19 18 17 18 21 24 20 13 14 14 14 15 12 11 12 13 13 10 15 19 15 12 10 10 17 20 18 19 20 19 18 16 14 14 12 13 14 15 18 19 18 18 20 21 26 30 32 33 33 33 34 34 33 33 32 32 31 31 31 29 28 27 26 25 24 25 26 25 25 24 22 20 19 18 18 18 18 16 15 13 12
10 7 8 14 16 16 14 13 13 15 22 24 19 14 13 12 13 13 13 12 12 12 11 14 16 12 11 12 12 16 18 19 20 20 18 18 18 15 13 12 12 14 15 16 16 18 19 21 24 28 31 32 33 33 33 34 34 33 33 32 31 30 30 30 29 28 27 27 25 24 25 26 26 26 25 23 21 20 19 18 17 17 17 16 15 14
9 8 7 10 15 14 11 13 16 15 16 18 18 16 14 11 12 14 15 13 12 12 10 11 12 10 10 12 14 16 15 15 17 18 16 17 19 14 11 13 13 13 15 15 15 18 20 21 24 29 32 32 33 33 33 34 34 33 33 33 33 31 31 31 31 29 28 27 26 25 27 27 28 27 25 23 22 20 19 17 17 17 17 18 18 18
9 7 8 9 11 13 14 16 19 19 17 16 16 17 16 13 12 14 14 13 14 13 11 10 11 11 9 11 13 13 12 13 15 17 16 17 16 10 10 14 15 14 15 16 16 16 18 19 21 26 30 31 31 33 34 34 33 33 33 32 33 33 32 32 32 31 29 27 27 27 28 28 28 27 25 24 22 21 19 18 18 19 19 20 21 20
11 7 8 10 10 13 17 18 20 22 22 19 17 17 18 16 13 13 12 13 14 14 14 13 12 11 10 10 9 10 12 15 16 14 12 13 12 10 13 14 13 16 15 16 15 15 16 17 18 21 25 28 29 31 33 34 33 33 34 33 32 33 33 32 31 31 29 28 28 29 29 28 27 26 25 24 22 21 20 19 20 22 22 21 22 23
11 8 9 10 9 11 15 17 19 21 21 18 17 18 18 18 18 15 12 12 13 15 16 14 13 12 10 9 8 9 12 15 15 14 13 14 13 13 16 12 8 13 14 14 14 14 14 16 16 17 18 21 24 28 31 33 32 32 33 32 32 33 34 33 31 30 29 29 29 30 29 28 27 26 26 24 23 23 23 23 23 24 24 24 26 30
11 9 10 10 9 10 12 13 15 18 17 14 15 19 19 23 27 21 13 12 14 17 19 15 12 12 11 12 12 11 13 14 15 16 17 17 15 14 15 8 6 8 10 13 13 12 15 15 14 14 13 15 21 26 29 30 32 32 32 32 32 31 32 32 31 30 30 30 30 30 29 28 27 27 26 25 25 27 27 26 25 27 29 31 32 36
12 10 11 11 11 12 12 11 11 13 14 12 16 22 23 27 31 22 14 14 14 14 18 16 13 12 12 14 17 17 15 15 13 14 15 15 15 16 13 5 7 7 9 12 12 12 13 12 13 13 12 15 22 26 26 29 31 32 31 32 32 30 30 31 30 30 30 30 30 30 29 29 28 28 28 29 30 30 30 29 28 30 34 35 34 34
9 10 14 15 13 12 12 11 11 12 13 15 19 24 25 26 27 20 14 16 14 12 15 15 15 17 16 15 17 18 17 14 12 12 13 13 14 14 8 6 8 8 9 11 12 12 12 11 13 15 14 16 23 26 25 27 30 31 31 31 31 30 29 29 29 30 30 30 28 28 29 30 29 29 31 34 34 32 30 30 31 32 35 36 33 31
7 10 17 20 19 17 16 14 15 15 16 19 21 23 24 25 26 23 19 18 16 14 14 15 16 19 19 18 18 18 17 16 14 15 16 14 12 11 7 9 11 11 12 13 13 13 14 12 13 15 16 18 22 25 25 26 28 29 30 31 31 30 28 27 28 29 29 28 27 26 28 28 29 30 32 33 33 33 32 32 32 34 36 38 35 32
8 11 15 19 21 22 22 20 18 17 18 21 21 21 23 24 27 26 24 23 21 16 15 16 18 21 21 23 24 20 17 16 16 16 17 15 13 13 12 12 13 13 13 14 14 14 14 14 14 15 16 18 20 23 24 25 25 26 27 28 29 30 29 27 27 28 28 27 26 25 26 26 26 28 29 28 28 30 32 33 34 36 40 41 37 32
9 9 12 16 17 20 23 23 23 21 19 20 21 21 22 24 26 27 25 26 26 23 22 20 20 20 19 22 25 23 20 17 14 15 15 16 17 16 14 14 14 13 12 12 13 15 15 15 16 16 17 17 18 22 23 23 24 25 25 26 27 28 28 26 26 26 27 26 25 24 25 25 25 27 27 27 27 27 29 30 30 31 33 32 29 26
11 9 12 14 13 15 20 21 23 24 22 22 22 23 25 25 25 26 25 25 25 24 25 24 21 18 16 18 20 21 21 21 18 16 16 15 16 15 14 15 13 11 11 11 12 14 15 16 16 17 18 19 19 22 24 23 24 25 26 26 26 27 27 26 25 25 26 25 24 24 25 25 26 27 27 28 28 29 31 30 28 28 26 21 20 21
12 10 11 12 11 13 16 19 22 23 23 24 24 24 26 24 22 21 21 22 22 22 23 23 20 16 14 16 17 16 18 23 24 22 19 15 14 13 13 14 14 12 11 10 11 14 16 17 18 20 21 20 22 24 24 23 24 24 25 25 25 26 27 26 25 25 25 25 24 25 25 24 25 26 25 25 27 29 31 30 26 24 22 18 17 19
12 10 10 11 11 12 17 20 21 20 18 18 20 23 26 24 23 23 21 22 23 22 19 17 16 15 14 16 18 18 18 20 22 22 20 18 15 15 15 15 15 16 13 9 8 12 16 17 18 20 20 20 23 26 26 25 24 23 23 24 24 25 26 26 25 25 25 25 24 24 23 23 24 24 22 21 23 24 25 26 24 21 19 18 17 17
15 12 10 10 9 11 16 19 17 16 15 14 15 20 24 26 26 27 24 23 24 22 18 16 16 17 17 18 21 22 19 18 19 19 19 17 15 17 19 17 16 18 14 6 5 10 13 15 15 17 20 22 24 25 25 24 23 22 22 22 22 23 24 25 25 25 24 24 24 24 23 22 23 22 21 21 22 22 22 23 23 22 19 17 16 17
14 12 9 9 9 9 11 13 13 14 13 13 13 17 22 25 28 29 27 26 26 25 24 23 21 19 18 18 20 21 19 18 19 20 20 19 18 19 19 16 16 18 13 7 7 12 14 14 14 16 19 23 24 24 24 24 23 22 22 22 22 22 22 23 23 23 23 23 24 24 24 23 22 21 22 22 20 21 22 22 22 21 20 18 18 19
10 10 9 8 9 8 8 10 12 11 11 12 13 14 17 20 24 26 25 25 26 25 24 23 21 20 20 19 19 18 18 19 19 19 20 20 20 21 19 17 17 16 12 10 13 14 15 16 16 17 19 22 24 24 25 24 24 24 23 23 22 21 21 22 23 23 23 23 24 24 24 24 22 21 22 21 19 18 18 19 19 18 17 18 18 17
11 10 8 8 9 9 9 10 10 10 13 13 9 7 8 9 12 13 12 15 18 19 21 22 21 21 21 20 18 15 16 17 16 17 21 23 22 22 20 20 20 17 15 14 14 15 17 18 18 19 20 22 24 25 24 24 25 24 24 24 23 22 22 22 22 23 23 23 23 23 23 22 22 21 21 20 18 16 15 15 15 15 15 16 16 16
14 12 10 9 8 8 9 10 10 12 13 8 0 5 5 6 7 7 7 10 13 16 18 20 21 21 20 18 18 16 16 15 13 13 16 19 19 19 19 19 19 17 14 13 13 14 17 19 19 21 23 23 23 24 24 25 25 24 23 24 23 23 23 22 22 23 22 22 22 22 22 21 21 20 19 18 17 15 14 13 13 13 13 13 13 14
18 13 11 10 9 9 10 10 10 11 8 4 4 3 6 7 7 6 6 11 11 15 19 18 19 22 20 18 18 17 14 12 11 10 12 15 18 18 17 17 17 15 12 12 13 15 17 19 20 21 23 23 23 24 25 25 26 24 23 23 23 22 22 21 22 22 22 22 22 21 21 20 19 18 18 17 17 16 15 14 13 13 12 11 12 12
19 13 11 12 11 11 11 10 9 9 5 6 6 2 2 4 4 1 8 9 7 11 15 16 17 21 19 16 15 15 12 10 10 10 12 16 16 14 12 13 13 13 12 12 14 15 17 19 19 19 22 23 24 26 26 26 25 24 22 22 22 21 21 22 22 22 22 22 21 20 19 18 18 18 17 17 17 16 16 15 13 14 12 10 11 10
16 13 12 13 13 12 12 11 9 7 4 6 5 2 2 2 4 7 8 3 7 11 13 14 15 15 14 13 13 13 12 10 10 10 9 8 6 7 7 8 8 10 11 11 13 16 17 18 18 18 20 22 23 25 26 25 24 23 22 21 20 20 21 23 23 22 22 21 20 19 18 18 18 18 17 16 16 15 15 14 13 13 12 10 10 10
13 12 12 12 12 12 11 10 10 7 3 6 5 4 4 6 7 6 2 3 6 10 11 12 12 10 9 14 14 12 12 12 12 11 7 2 3 5 5 6 7 8 8 10 13 16 16 16 17 18 19 21 22 22 23 25 24 23 22 21 21 22 24 24 23 23 22 21 21 19 18 17 17 16 15 15 15 14 14 13 11 11 11 11 13 13
13 11 11 11 11 10 10 11 11 8 6 6 4 5 5 5 4 2 4 4 5 8 10 10 9 8 8 11 11 12 13 12 11 10 8 5 5 5 5 6 7 8 10 11 13 15 15 14 15 18 20 22 22 22 23 25 25 24 23 23 23 24 25 24 24 24 23 21 22 21 19 17 15 13 12 13 14 14 13 11 9 10 11 13 14 14
14 12 11 10 9 10 12 11 6 3 7 7 3 2 2 1 4 4 4 4 3 4 6 7 7 7 7 7 6 9 10 9 9 9 7 6 7 6 6 7 7 8 9 11 13 16 17 15 15 18 20 21 22 23 24 24 25 24 23 23 23 23 23 23 22 22 21 20 20 19 19 19 17 13 11 11 11 12 12 11 11 12 14 16 15 14
5 4 5 5 5 5 4 2 3 4 6 7 2 2 1 2 2 3 3 2 2 3 3 4 5 6 5 1 3 4 5 6 7 7 8 8 8 9 9 9 9 9 10 11 14 17 18 18 19 21 21 21 22 23 22 23 24 23 21 21 22 22 23 23 22 21 20 19 18 17 18 18 17 14 12 12 11 12 12 13 14 14 15 16 15 13
6 6 1 2 2 3 5 6 6 6 7 9 6 1 1 4 4 4 3 2 2 4 5 3 3 3 2 2 5 6 6 7 7 7 9 10 10 11 11 10 10 11 11 12 14 17 20 21 21 21 21 21 21 21 20 21 22 22 20 20 21 22 22 23 22 22 22 21 20 19 18 18 16 14 14 14 13 13 14 14 14 14 15 16 15 13
4 8 4 2 5 3 2 3 6 7 8 10 9 5 6 8 7 6 6 5 5 7 6 4 4 3 3 4 6 7 8 9 9 9 9 10 11 13 13 13 12 12 13 14 17 19 21 20 18 19 19 20 21 21 20 20 21 21 21 20 20 21 22 22 21 21 21 21 20 19 18 18 16 15 15 15 14 13 14 13 13 14 14 14 14 13
3 7 6 3 4 3 4 6 7 10 10 11 9 7 7 9 10 10 9 8 9 10 9 8 7 6 7 7 8 9 10 11 11 11 11 10 11 12 13 13 13 13 13 15 17 18 19 17 16 18 18 18 20 21 21 20 21 21 21 20 19 20 21 21 20 20 19 19 19 19 18 17 16 15 15 14 12 12 12 12 13 14 13 12 12 13
5 4 4 4 2 4 8 9 9 9 11 12 11 10 9 11 13 14 13 12 12 13 14 14 12 11 11 11 11 11 12 12 12 13 13 12 11 11 12 12 13 14 14 16 17 17 17 17 17 18 18 18 18 19 19 20 20 20 20 19 20 20 20 20 20 20 19 18 18 18 17 17 16 15 15 12 11 11 11 9 8 11 11 8 7 9
5 3 4 4 0 2 5 7 7 6 7 9 10 12 12 13 15 17 16 15 16 16 16 16 16 16 16 16 15 14 14 14 15 16 15 13 12 12 12 12 12 13 14 16 18 19 19 18 18 19 18 17 17 17 18 17 17 17 17 18 18 19 19 19 19 18 17 17 16 17 17 17 15 15 15 14 13 13 12 8 7 9 10 9 7 7
6 5 5 4 1 2 2 4 7 6 8 10 10 11 12 13 16 18 17 17 18 18 18 18 17 17 17 18 18 18 16 16 16 16 16 14 13 13 13 14 13 13 14 16 16 16 17 18 17 17 17 15 15 15 15 15 15 14 15 16 16 17 18 17 16 16 15 15 15 16 16 16 15 15 15 14 14 15 13 10 10 10 11 10 9 9
Wind_Direction
194 203 210 212 213 208 211 216 220 226 233 234 225 217 219 229 225 198 183 177 189 204 202 199 209 213 200 179 178 191 197 199 200 201 200 195 194 194 196 200 198 199 199 194 194 196 195 194 192 191 192 191 192 193 193 193 194 195 196 198 197 198 200 199 198 200 202 205 208 211 216 217 217 219 220 221 222 224 227 224 213 209 214 221 224 222
197 212 215 212 216 213 210 215 220 226 234 238 234 226 222 227 228 209 185 170 188 208 203 202 208 214 210 192 185 195 201 202 201 200 203 204 200 196 199 202 201 199 200 196 191 194 197 194 191 192 192 192 192 193 194 194 195 196 198 199 199 197 199 201 202 202 204 207 208 211 216 219 219 220 221 222 225 227 229 221 211 213 214 216 222 222
204 218 217 211 214 218 214 215 219 225 232 238 238 231 227 224 227 228 193 166 178 207 203 206 211 211 210 206 199 195 199 206 206 203 204 206 207 203 199 201 204 201 200 199 192 191 196 195 193 192 193 194 194 194 195 195 195 197 199 200 200 199 199 201 203 204 206 209 210 215 218 220 224 224 222 225 226 226 227 219 213 217 214 213 215 214
206 215 215 212 212 217 218 215 217 224 228 233 235 228 229 224 219 228 188 159 171 200 212 215 217 214 208 210 210 201 198 204 208 211 209 206 209 210 205 202 203 203 201 201 196 192 195 196 194 193 194 195 195 195 195 196 197 197 199 199 199 201 201 201 203 205 209 211 212 217 220 221 228 230 224 224 223 222 224 220 216 214 210 212 217 214
218 212 208 212 211 213 220 217 214 220 224 229 233 229 227 223 222 220 169 159 186 204 218 226 225 222 213 212 212 204 203 206 208 213 213 210 210 210 211 207 205 205 203 202 200 194 193 196 195 194 194 195 196 197 196 197 197 198 199 199 199 200 202 202 203 205 208 210 211 213 217 219 223 225 220 219 218 219 222 221 219 213 209 211 214 213
224 212 201 210 212 211 218 219 214 216 219 225 229 233 234 224 225 225 180 168 205 211 211 220 227 228 215 216 217 209 208 207 206 212 213 213 214 213 214 212 207 205 203 203 203 198 194 196 197 195 194 196 198 197 198 198 198 199 198 198 199 200 202 203 203 204 206 208 209 208 209 212 215 217 216 217 220 220 223 225 222 216 211 209 206 205
224 215 206 208 211 211 216 220 216 216 221 224 219 224 237 237 231 232 204 187 213 216 207 213 225 237 217 215 220 219 216 208 205 213 212 210 215 218 219 216 210 206 203 201 202 201 197 196 197 196 195 198 199 198 198 200 199 199 198 197 198 199 201 204 203 204 205 206 209 210 212 215 217 221 219 219 224 224 224 222 216 211 204 200 204 201
216 218 214 208 211 211 213 219 216 216 222 227 218 214 225 236 238 238 224 209 217 215 212 217 225 239 232 221 218 216 218 214 209 209 209 211 216 218 220 222 218 209 202 199 199 201 199 198 198 198 197 198 200 199 199 200 200 199 198 197 198 199 201 203 203 203 203 205 207 210 215 217 219 224 223 219 220 219 219 216 208 204 194 188 195 195
209 219 218 208 211 214 213 216 213 216 223 225 227 223 219 224 235 243 237 221 218 220 220 218 223 235 237 230 221 214 215 218 214 205 205 214 217 214 214 223 227 215 203 199 197 199 200 199 199 198 197 198 199 200 198 199 199 198 198 197 197 199 201 201 201 201 202 203 205 207 210 214 218 222 223 219 214 210 209 209 204 197 189 183 187 191
207 217 223 210 210 221 217 213 212 217 224 224 230 236 231 221 223 234 238 226 220 229 233 223 221 233 239 229 222 217 216 217 214 208 210 212 211 211 212 222 231 220 205 201 197 196 200 200 199 199 198 198 199 199 198 198 198 197 197 197 197 198 199 200 200 199 201 202 203 206 208 211 215 216 218 218 211 204 201 202 199 193 191 187 187 191
224 211 221 219 214 223 221 216 217 220 224 227 229 236 239 230 224 230 234 229 223 227 231 226 223 230 242 230 217 220 228 225 217 214 216 208 202 208 209 216 229 224 207 203 199 195 198 199 199 198 197 197 198 198 197 196 197 197 196 196 197 198 198 199 199 199 201 202 204 206 206 208 213 213 213 212 209 204 199 200 200 197 194 190 193 198
233 213 211 221 218 217 221 221 219 219 221 224 226 230 234 232 231 237 232 226 229 228 224 223 223 227 236 233 217 219 226 223 216 218 219 207 203 208 206 206 220 226 214 205 201 193 193 197 198 197 196 196 196 197 197 196 196 196 196 196 196 198 199 199 199 199 200 203 204 206 206 207 211 212 211 210 208 206 203 202 202 197 195 197 203 207
228 226 213 215 216 214 220 222 214 212 214 218 221 224 227 224 222 229 228 224 231 233 225 224 226 229 232 235 230 226 225 217 207 215 222 214 204 199 198 200 207 217 213 205 202 195 190 193 195 196 194 193 194 196 197 196 195 196 196 196 196 197 199 198 199 200 200 202 204 205 206 207 209 210 211 212 210 208 207 204 201 196 195 198 202 205
215 227 218 213 213 210 215 221 213 205 205 211 214 217 222 220 218 222 224 226 230 230 226 227 233 237 233 232 229 224 224 219 204 209 221 227 216 193 185 191 201 213 213 207 203 196 190 192 192 193 193 192 194 195 196 196 195 195 195 196 197 197 198 198 200 201 201 202 203 203 204 206 207 208 211 214 214 212 209 205 203 199 197 198 200 203
211 219 212 208 206 203 210 221 223 209 205 212 211 216 224 221 221 225 219 224 233 233 228 225 228 234 232 230 224 217 219 221 212 209 214 227 235 209 178 177 193 212 215 211 207 199 193 192 190 191 192 192 193 193 195 196 194 194 195 195 197 197 197 198 199 201 202 202 202 201 203 205 206 207 209 214 216 215 212 208 205 202 201 202 202 201
220 225 206 201 205 207 208 215 223 221 216 210 207 219 225 216 222 234 228 228 236 237 232 226 224 229 233 231 219 214 219 220 220 220 217 223 232 224 185 175 190 208 213 212 210 201 196 191 188 191 191 191 192 192 193 194 193 194 194 194 196 197 197 197 198 200 201 201 201 200 202 204 204 205 207 211 215 215 214 212 208 206 205 205 203 200
221 228 206 197 202 209 209 209 217 225 222 199 205 222 222 212 222 236 237 236 238 238 235 232 229 224 228 225 209 215 222 216 219 222 222 229 229 215 195 187 191 203 210 211 209 201 196 192 189 190 191 190 190 191 192 192 192 193 192 193 195 195 196 196 197 199 200 200 200 200 201 203 204 204 205 209 211 212 214 213 210 209 208 207 205 202
222 232 207 198 203 206 207 211 217 225 228 212 208 217 216 217 225 233 236 232 233 237 234 234 236 228 223 218 204 222 224 207 215 224 223 230 226 204 204 205 197 203 213 211 204 199 197 194 191 191 191 192 191 190 190 190 190 192 192 193 194 193 194 195 196 197 198 198 199 198 198 201 203 204 205 207 207 208 211 210 209 209 209 208 206 203
216 234 208 202 209 203 197 209 218 221 226 232 230 214 209 217 220 220 229 227 229 236 232 235 240 237 233 221 198 223 227 207 211 224 224 231 228 203 197 203 198 202 217 214 200 195 198 197 194 194 193 192 191 189 189 189 189 191 192 193 194 194 194 195 196 197 196 197 197 197 197 199 202 203 204 205 205 205 207 208 207 206 207 208 203 195
209 227 222 202 200 194 189 204 216 212 215 228 238 224 212 220 220 218 225 227 231 237 233 234 239 238 240 230 205 217 226 212 213 221 221 232 237 215 190 191 196 199 211 214 201 195 197 197 197 196 194 193 191 189 188 189 190 192 192 193 194 195 194 195 197 197 196 196 197 196 196 198 201 201 201 202 202 203 204 206 204 203 204 203 197 188
207 206 226 205 186 189 198 203 211 214 206 212 226 225 216 215 220 224 225 222 227 236 234 232 238 235 237 235 217 214 219 216 216 216 210 220 232 222 197 193 191 194 206 208 204 201 198 198 198 197 196 194 191 189 189 190 192 193 194 194 194 195 195 196 197 197 196 195 195 195 194 197 198 198 198 199 200 201 203 205 204 203 202 197 193 189
212 200 216 216 190 194 212 209 210 219 218 210 213 221 223 217 216 223 225 220 222 231 236 235 240 236 228 233 224 212 215 223 220 212 202 207 218 220 222 209 181 180 204 205 203 208 203 199 199 197 197 195 192 191 190 191 193 195 196 196 196 197 198 199 198 197 195 193 193 194 194 196 196 195 196 196 198 200 202 204 204 201 197 193 190 189
213 212 214 224 216 206 211 212 212 218 227 227 217 216 224 226 221 220 221 223 224 229 233 235 243 239 225 230 222 202 214 226 224 215 202 205 214 223 245 236 177 166 194 202 202 211 208 202 200 197 196 195 193 191 190 191 194 196 198 198 197 199 200 201 200 197 193 191 192 193 194 194 193 194 195 195 196 198 200 204 202 197 193 191 191 197
205 222 215 220 235 224 211 212 215 215 221 231 227 217 218 224 229 230 226 226 227 227 227 229 238 234 228 237 223 192 208 223 223 218 213 219 224 225 241 244 159 152 184 197 200 209 207 201 198 197 195 193 193 191 191 192 194 196 198 198 199 200 201 202 200 196 192 191 193 193 193 193 192 194 195 194 196 200 202 204 198 192 193 195 200 208
191 218 217 210 223 222 210 207 211 211 211 220 227 222 216 220 227 230 229 229 230 228 227 232 237 229 226 238 232 209 202 210 218 219 218 226 231 234 244 239 131 145 185 193 201 209 205 198 194 195 192 188 191 192 192 192 192 195 198 199 200 201 201 201 200 196 193 193 195 194 192 192 193 194 193 195 200 204 206 203 194 190 196 201 206 211
198 201 210 213 213 209 208 207 205 204 206 212 224 225 220 220 225 225 223 232 235 228 227 234 240 230 217 221 229 226 209 196 206 218 222 226 224 226 238 215 144 168 186 188 201 211 207 197 189 191 189 185 190 193 192 192 192 195 197 199 201 201 199 199 199 198 195 194 197 195 190 191 193 193 193 196 202 207 207 202 196 194 200 207 210 211
225 206 206 216 225 220 215 215 210 206 209 212 217 225 227 224 224 222 222 231 233 227 228 237 245 242 232 223 224 225 214 199 205 226 242 248 233 219 206 150 152 179 183 188 201 206 207 200 187 188 188 186 190 192 192 194 195 195 196 199 201 200 198 198 198 199 196 195 198 195 191 192 192 191 193 197 204 207 204 200 201 203 205 209 212 209
245 228 212 213 223 233 235 227 216 213 221 223 215 217 226 228 224 222 224 230 232 231 231 231 235 241 243 242 235 225 216 208 208 226 242 247 241 235 211 162 166 178 181 189 198 200 203 199 186 186 187 186 189 190 191 194 197 197 196 197 199 200 199 197 196 198 197 195 195 194 193 194 191 191 194 198 203 205 201 200 206 208 207 211 214 211
233 233 220 214 215 226 239 241 232 224 229 235 226 216 220 227 228 229 229 228 228 234 239 229 224 228 235 242 243 240 233 220 208 220 237 234 228 237 235 206 192 190 186 188 192 194 196 193 186 185 186 186 187 188 191 193 195 196 195 195 197 199 200 197 193 194 197 195 193 191 191 191 190 190 192 197 201 203 202 203 206 206 209 215 217 213
226 231 226 227 222 221 229 238 241 239 235 236 234 227 222 224 227 233 237 235 231 235 242 240 233 230 230 235 239 242 248 243 220 211 223 229 229 233 236 228 219 210 202 195 191 191 191 189 186 184 185 188 188 189 190 191 191 192 192 192 194 197 200 196 189 189 193 192 190 188 185 186 188 189 192 197 201 204 204 203 205 208 211 215 216 213
211 224 225 234 242 232 228 230 235 240 241 238 235 231 230 228 226 227 233 236 237 237 238 240 241 238 234 235 235 235 241 248 241 225 216 219 225 228 234 241 240 229 221 215 200 190 187 187 187 184 186 189 190 190 189 188 188 189 191 192 191 192 195 193 186 186 188 188 186 182 182 184 184 184 191 198 200 204 209 208 211 216 216 214 213 213
201 218 221 226 240 239 234 235 235 237 241 245 242 236 234 234 231 230 229 230 235 238 238 238 240 239 235 237 237 231 233 241 245 242 237 230 227 225 230 244 255 252 244 235 210 190 185 188 190 188 188 189 189 189 188 185 185 187 190 190 188 187 189 187 183 181 182 181 180 178 181 183 179 179 188 196 198 206 212 213 215 219 217 215 214 213
202 213 215 217 230 234 229 233 238 238 240 243 242 239 238 237 234 234 232 228 230 234 237 238 240 241 238 239 240 232 226 233 241 243 244 242 243 242 236 236 248 253 253 250 225 198 189 191 195 191 188 188 188 188 187 183 182 185 187 185 184 184 184 182 178 176 177 178 177 177 177 176 175 178 185 192 199 207 210 211 215 218 217 215 214 212
198 204 216 219 226 232 227 228 235 237 235 236 235 238 243 244 243 241 236 229 228 232 236 237 240 243 237 234 240 238 230 228 234 242 244 240 243 248 240 229 236 248 249 241 233 227 210 199 197 192 188 188 188 186 184 181 179 181 182 182 181 181 182 180 175 173 174 176 177 176 173 172 174 180 188 196 204 210 211 214 219 221 222 220 218 218
196 198 216 221 224 232 228 226 230 230 233 239 236 235 239 243 248 253 252 241 232 232 237 237 234 237 237 232 235 240 239 235 236 241 244 239 237 240 235 225 229 241 240 204 202 229 222 202 194 190 187 187 186 182 180 179 176 176 178 180 179 179 179 176 172 171 173 177 179 177 175 177 177 181 192 200 204 209 214 218 222 224 226 226 226 227
204 202 211 217 223 227 222 220 226 235 244 246 243 241 240 239 243 250 255 251 239 231 235 240 237 232 234 236 235 233 234 235 238 242 241 238 239 239 234 228 225 227 226 209 204 210 206 196 193 189 184 182 181 178 178 177 174 172 174 175 175 175 174 171 171 173 174 179 181 176 176 181 181 184 193 199 202 209 215 218 222 224 224 226 230 229
216 214 215 217 218 221 228 228 231 247 248 239 242 258 260 259 257 257 264 270 265 249 236 239 244 239 232 232 234 233 231 229 232 238 235 231 234 237 235 231 227 222 218 214 207 198 191 188 187 182 179 179 178 176 175 174 171 168 169 169 169 169 168 166 170 173 173 177 178 171 171 179 184 186 192 196 201 210 215 218 221 223 223 225 230 229
219 218 219 222 218 217 231 234 232 239 239 227 298 8 350 326 325 332 311 287 290 283 255 237 241 248 244 234 228 228 232 232 231 232 229 226 229 232 231 230 231 228 219 207 199 190 181 179 179 177 175 177 177 175 171 169 166 164 165 166 166 168 168 167 169 170 170 173 173 168 169 177 182 185 189 195 201 208 214 219 223 225 227 228 230 233
218 214 215 223 222 217 226 232 231 235 229 165 101 25 343 337 5 12 295 261 268 282 273 253 241 242 244 243 236 228 226 231 234 233 232 233 232 227 226 227 227 225 215 198 192 184 173 173 174 172 174 177 175 171 167 166 164 162 164 165 166 168 167 165 166 166 166 167 166 165 168 173 178 183 187 192 198 205 211 216 222 225 225 227 230 237
215 210 209 218 221 218 223 230 235 242 225 142 128 127 305 326 0 261 241 252 279 291 291 287 265 245 236 239 243 238 230 227 234 247 255 249 233 214 212 221 218 213 205 196 189 178 169 170 171 171 176 177 170 166 166 166 162 157 159 162 162 163 162 161 161 160 160 160 158 159 163 168 176 184 187 190 195 203 209 210 215 219 218 219 222 220
212 210 206 214 217 214 220 229 237 247 214 144 143 182 231 256 258 234 228 274 335 319 319 320 299 270 249 243 242 241 238 230 231 250 274 268 222 181 184 199 194 194 197 189 174 164 162 166 170 175 176 171 168 168 166 161 154 150 153 156 155 153 153 153 152 151 150 151 152 155 162 169 177 182 185 188 192 197 204 205 205 206 206 198 185 177
206 208 205 212 218 217 219 226 236 242 185 141 165 209 223 237 242 242 267 354 328 316 322 324 317 307 277 256 250 247 242 234 232 241 255 247 160 162 173 171 165 172 170 150 143 149 156 162 168 174 171 166 167 167 158 149 144 143 146 147 144 144 144 142 142 143 144 147 151 156 163 167 173 179 182 185 186 184 188 194 192 190 190 181 167 164
197 201 207 209 213 219 220 221 233 234 179 153 187 204 206 241 271 350 352 322 316 327 328 320 316 314 282 261 258 253 243 231 224 229 228 197 162 160 167 167 161 152 138 130 137 150 157 158 161 162 159 155 156 153 147 142 137 136 139 138 136 137 137 135 137 140 143 148 153 156 157 156 160 172 180 181 178 172 170 174 176 176 178 173 165 166
198 204 212 206 204 217 223 221 227 204 159 165 209 237 180 272 337 339 304 299 327 335 324 324 324 309 286 267 248 237 229 208 190 194 189 160 141 139 138 140 140 140 145 150 153 152 150 147 147 146 145 145 145 144 142 137 129 126 128 128 129 130 130 130 133 136 140 144 147 148 150 148 151 162 172 169 166 164 163 165 171 177 176 171 167 170
225 229 215 204 211 223 228 188 116 101 133 149 142 350 94 96 356 297 277 301 6 13 348 340 326 302 284 246 157 176 183 171 166 162 139 123 126 128 129 135 142 146 152 151 146 145 145 143 141 140 139 137 136 135 132 126 120 117 117 121 125 126 125 127 131 134 137 139 142 145 146 142 141 151 162 163 163 164 163 164 169 172 170 170 171 173
321 334 323 145 127 80 61 77 102 107 116 124 125 146 122 99 71 42 41 44 53 52 41 15 337 297 260 154 127 134 142 141 137 125 108 104 109 112 116 125 132 135 138 136 136 138 138 135 133 130 126 122 120 120 121 121 120 118 118 122 126 127 129 131 132 135 137 140 144 148 146 142 141 146 153 155 158 162 163 165 166 165 166 173 178 179
334 340 326 177 163 153 115 102 100 94 100 112 115 106 85 88 94 83 64 57 66 70 62 45 45 55 70 89 102 113 116 110 107 106 102 98 99 98 97 99 104 113 123 127 129 130 128 124 123 120 117 116 117 117 118 119 120 121 124 127 129 130 132 132 131 134 137 139 142 143 142 143 144 145 149 152 155 161 164 163 161 161 169 178 179 178
340 333 324 265 204 158 128 123 103 84 78 81 86 87 81 83 93 96 88 77 74 76 72 62 58 63 70 77 91 102 104 104 105 103 99 94 92 89 86 86 89 93 98 104 111 117 117 113 111 110 109 110 113 116 118 119 122 127 130 132 130 130 130 131 131 134 135 136 139 140 141 145 146 148 153 156 154 156 159 160 162 165 172 179 178 178
312 303 326 312 263 121 125 142 137 109 90 78 70 68 72 76 75 75 77 80 76 72 69 66 62 60 60 64 72 78 80 82 83 81 79 73 68 72 75 78 78 76 75 76 80 85 90 93 95 95 95 96 101 108 113 118 124 129 131 131 131 132 132 133 134 135 134 136 139 139 142 149 152 154 156 150 137 134 138 148 162 162 157 158 164 171
342 359 7 355 299 142 145 155 151 129 111 99 79 67 71 76 74 67 62 60 58 56 57 59 56 52 49 48 51 57 60 60 60 63 65 60 54 56 62 67 72 74 71 70 70 71 74 78 81 83 86 90 95 102 108 115 123 128 128 129 133 135 135 136 138 138 138 141 141 143 150 158 160 159 159 153 142 136 130 121 127 138 140 142 140 143
1 3 357 19 62 278 257 132 117 102 102 101 83 66 64 68 70 67 58 51 48 45 45 47 44 41 39 36 35 39 44 48 52 55 57 55 51 53 57 60 64 68 68 66 67 69 71 74 77 80 83 87 93 99 106 115 121 123 122 125 131 134 135 138 139 139 140 142 143 149 158 163 160 159 161 159 156 154 147 129 117 120 130 140 139 134
Height
724 739 742 739 735 730 727 724 724 724 719 718 719 723 727 730 725 716 718 716 715 735 742 738 743 741 737 736 736 735 733 736 740 740 741 741 743 746 749 750 751 753 752 751 756 760 762 766 769 772 775 777 780 783 785 788 790 793 795 796 798 800 803 804 806 808 809 811 812 813 815 815 816 818 819 820 821 821 823 824 824 825 825 826 826 827
724 740 736 727 724 718 718 720 720 721 719 718 719 723 724 725 721 707 709 714 713 731 741 734 740 742 734 732 731 732 736 737 737 739 741 740 741 742 745 748 748 748 747 748 752 756 759 762 766 770 772 774 777 779 782 785 788 790 792 794 796 798 800 802 803 805 807 808 809 811 812 813 815 816 817 818 819 820 821 822 823 824 825 825 825 826
733 736 725 716 714 713 715 716 718 721 721 722 720 723 727 720 716 708 701 707 714 731 741 735 739 741 730 727 727 727 732 734 730 731 735 737 739 740 741 744 745 746 746 746 749 752 755 758 762 766 769 771 774 776 779 782 785 787 789 791 794 796 797 799 801 803 805 806 807 809 810 812 813 814 815 817 818 819 820 821 822 823 823 824 824 825
737 727 714 708 709 713 717 714 718 722 721 723 720 724 729 717 717 722 712 709 716 726 735 736 738 737 730 727 725 722 724 726 726 726 727 730 734 736 735 737 740 743 746 746 746 747 751 754 758 762 765 768 770 773 776 779 781 783 786 788 790 793 795 797 799 801 803 805 806 808 809 811 812 813 814 815 817 818 819 820 821 821 822 822 823 823
724 712 702 705 707 712 719 716 717 725 726 722 716 719 723 714 712 718 716 719 723 726 729 736 749 745 734 734 730 719 719 723 724 724 726 726 727 729 730 731 734 737 740 742 743 744 747 750 753 757 761 764 766 769 771 774 777 779 782 785 788 790 793 795 797 799 801 803 805 806 808 809 810 811 813 814 815 816 817 818 819 820 821 821 822 823
712 699 696 706 709 710 718 717 714 721 728 725 716 711 710 709 708 707 712 726 742 746 732 738 770 764 736 734 733 721 721 724 723 724 728 727 725 727 729 729 729 731 733 736 738 740 742 746 749 753 757 760 762 764 768 770 773 776 779 782 785 787 790 792 794 796 799 801 802 804 805 807 808 809 811 812 813 814 815 816 817 819 819 820 821 822
703 694 695 706 709 710 715 716 710 711 725 728 713 703 703 704 706 707 711 728 749 754 732 729 764 771 745 736 731 723 724 724 722 724 725 725 726 726 727 727 726 726 728 730 733 735 738 741 745 748 752 756 758 761 764 767 770 773 776 779 782 784 787 789 791 794 796 798 800 801 802 804 806 807 808 810 811 812 814 815 816 817 818 819 820 821
699 698 699 701 705 710 714 716 706 702 720 724 701 696 705 706 708 708 711 725 735 738 734 727 742 764 760 740 724 720 726 725 723 724 723 723 724 723 723 724 723 722 722 725 729 731 733 736 739 743 748 751 754 758 761 764 766 769 773 776 778 781 784 786 789 791 793 795 797 799 801 802 804 805 807 808 809 811 812 813 814 815 817 818 819 821
694 702 701 699 707 711 708 705 697 698 714 711 692 690 697 702 707 705 711 724 724 734 752 740 733 759 764 737 719 718 725 729 723 720 721 720 719 720 722 724 722 719 716 718 723 726 728 731 734 739 743 747 751 754 757 760 763 766 770 773 775 778 781 783 786 788 790 793 795 797 799 801 802 804 805 806 807 809 811 812 813 814 816 817 818 820
689 694 690 694 707 707 697 693 691 698 706 697 689 691 691 694 701 704 712 720 726 746 763 746 735 760 766 740 726 724 725 726 719 714 713 712 713 716 720 725 725 720 715 713 716 720 723 726 730 735 739 744 747 750 754 757 760 763 766 770 772 775 778 780 783 785 788 790 793 795 797 799 801 802 803 804 806 807 809 811 812 813 815 816 817 819
683 680 681 687 696 695 690 691 690 692 694 691 695 701 701 698 698 703 708 715 738 760 758 740 732 751 764 743 725 724 719 713 711 711 709 706 710 713 715 721 722 716 713 711 711 714 718 722 726 731 735 740 744 747 750 753 756 760 763 766 769 772 775 777 780 782 785 787 790 792 794 796 798 800 801 803 804 806 808 809 810 812 814 815 817 818
689 687 687 684 683 686 692 694 689 685 688 695 703 709 716 715 712 719 718 721 748 759 742 728 723 739 759 741 715 711 704 698 703 708 707 706 708 708 709 712 712 709 710 710 710 711 715 719 722 726 730 735 740 743 745 749 752 756 759 762 765 768 771 774 776 779 782 785 787 789 792 794 796 797 799 801 803 804 806 807 809 811 812 814 815 816
699 693 688 685 681 683 696 701 695 689 690 698 706 715 729 736 740 748 743 736 745 742 723 717 722 733 741 724 704 701 694 689 693 696 697 697 697 699 702 703 703 703 706 708 709 708 710 715 717 720 725 730 734 738 741 744 747 751 755 758 761 764 767 770 773 776 778 781 784 787 789 791 793 795 797 799 801 803 804 806 807 809 811 812 814 815
709 698 686 690 688 680 690 703 704 699 697 702 708 717 732 741 755 766 755 743 742 732 713 709 721 733 729 709 695 692 687 681 681 684 685 683 683 687 690 695 699 699 700 704 705 703 705 708 711 714 719 724 728 732 736 739 743 746 750 754 757 760 763 767 769 772 775 778 781 784 786 788 790 792 795 797 799 801 802 803 805 807 808 810 812 813
714 710 689 689 690 682 685 691 690 691 696 697 692 703 717 722 741 755 747 745 744 731 717 714 723 733 727 705 683 676 676 674 675 677 677 677 674 674 678 689 699 698 698 701 700 699 700 701 705 709 713 718 723 727 731 735 739 742 746 749 753 756 759 763 766 769 772 775 778 781 783 785 788 790 793 795 797 798 799 801 803 805 806 808 810 811
704 702 677 673 677 676 683 681 674 684 695 688 681 697 706 701 715 728 724 726 730 730 724 717 715 711 702 687 671 671 674 672 675 674 674 676 671 668 675 685 693 694 695 698 697 695 695 696 700 704 708 713 717 722 726 730 734 737 741 745 748 752 755 759 762 766 768 772 775 777 780 783 785 788 791 793 794 795 797 799 801 803 804 806 808 810
699 694 668 666 672 668 675 677 671 680 690 688 693 702 690 680 697 716 720 713 717 733 726 708 706 700 692 684 673 676 680 675 677 676 673 672 668 669 677 683 687 689 690 692 691 690 691 693 695 698 703 707 711 716 720 724 729 732 736 740 744 748 751 755 758 762 765 768 771 774 777 780 782 785 788 790 791 793 795 797 798 801 803 804 807 809
684 689 667 663 677 669 664 673 672 668 672 685 698 690 676 680 690 703 722 725 727 738 723 703 705 703 703 699 682 680 685 682 681 677 672 668 666 671 676 678 682 684 685 685 683 686 688 689 691 694 697 701 705 710 714 719 724 728 731 735 739 743 746 750 754 758 761 764 768 770 773 777 779 782 785 786 788 790 792 794 796 798 801 803 805 807
669 689 674 658 672 669 659 675 685 672 664 671 675 667 675 701 705 702 718 728 734 739 725 711 704 697 698 694 686 688 686 681 682 677 671 668 665 667 671 673 677 683 687 683 679 682 685 686 688 690 693 697 701 706 711 716 720 724 728 731 735 739 742 746 750 754 758 761 764 767 769 773 776 779 781 783 785 788 789 792 794 796 800 802 804 805
662 688 687 659 657 665 667 681 693 685 672 668 667 662 669 687 696 698 702 708 723 733 729 722 713 701 687 673 675 684 677 672 677 673 669 669 662 658 661 667 672 679 683 679 676 678 679 680 683 685 689 692 697 703 707 712 716 719 723 727 731 735 739 743 747 750 754 757 760 763 766 769 772 775 778 780 782 785 787 790 792 794 797 799 800 801
660 682 692 668 655 669 678 677 680 680 677 678 680 678 675 674 679 686 685 687 704 720 724 727 723 704 675 655 658 667 665 663 665 665 666 664 658 653 654 658 664 670 674 674 672 673 673 675 677 680 685 688 692 699 702 706 711 714 719 722 726 731 734 738 742 746 750 753 757 759 762 765 768 771 774 777 780 782 785 788 790 792 794 795 796 797
664 675 687 678 666 675 675 660 658 665 665 670 677 678 676 674 680 695 698 686 686 699 708 716 722 699 662 645 646 651 656 657 654 655 658 656 652 651 651 650 653 661 668 668 668 670 670 671 673 676 680 684 687 692 695 700 705 709 713 716 721 725 729 733 737 741 745 749 752 755 757 761 764 768 771 774 777 780 782 785 787 788 789 791 792 794
655 666 680 680 668 664 661 649 650 656 655 657 662 665 668 668 673 693 706 694 683 688 689 697 712 692 652 638 641 645 651 652 647 648 651 652 651 651 650 645 645 654 661 661 663 667 667 668 670 672 676 680 682 686 690 694 698 703 707 711 715 719 723 727 731 736 741 744 747 750 753 757 761 765 768 771 774 777 779 781 783 784 785 788 789 790
653 665 678 682 670 655 649 645 645 647 654 661 659 654 659 664 664 669 678 682 685 688 688 698 710 689 651 637 639 643 647 648 647 647 651 654 651 649 648 644 643 650 655 657 659 661 662 664 667 670 672 675 679 683 687 690 693 698 702 705 709 713 717 722 726 731 736 739 742 745 749 753 757 761 764 767 770 772 773 775 777 779 781 782 782 780
658 669 675 686 692 681 670 665 662 655 656 663 659 650 650 657 660 659 663 674 682 681 682 697 705 682 653 642 639 641 647 650 649 647 649 653 651 647 645 642 644 649 654 657 659 659 660 661 664 668 669 672 676 679 683 686 689 693 697 700 704 707 712 717 721 726 731 734 738 741 745 749 753 756 760 763 764 764 766 769 771 773 773 773 771 769
651 664 669 682 697 698 690 681 673 663 658 660 658 652 650 653 655 658 669 681 684 678 678 687 689 671 652 646 645 644 646 650 651 648 646 647 646 645 644 644 646 650 655 658 659 660 660 660 663 665 666 669 672 676 679 682 685 688 692 696 699 703 708 712 716 721 725 729 733 736 741 744 748 752 754 755 756 757 760 763 764 765 766 765 765 766
647 653 658 668 675 675 674 665 654 652 659 663 661 657 653 650 648 655 672 681 678 679 682 678 673 668 659 652 650 647 645 649 653 652 649 645 641 640 642 647 649 651 655 658 659 660 660 660 662 663 665 667 670 673 677 679 681 684 687 691 695 699 703 707 712 715 719 724 728 732 736 739 743 746 747 748 750 752 755 757 759 760 760 761 762 764
656 656 652 658 661 657 654 649 643 647 655 656 655 657 655 650 649 656 668 668 665 678 686 672 666 674 668 656 651 646 644 647 651 653 652 647 642 639 641 647 651 652 655 656 658 660 660 660 661 662 664 666 668 672 674 677 679 681 684 688 691 695 699 703 707 711 715 720 724 729 732 735 738 740 742 744 746 747 749 751 754 755 755 757 758 760
660 662 649 649 657 655 650 646 642 645 650 646 643 649 653 652 653 656 657 654 657 673 677 663 663 672 666 656 649 642 639 641 643 645 645 642 640 640 641 644 647 650 653 655 656 657 657 659 660 661 663 664 667 670 672 675 677 679 682 685 688 691 695 698 703 707 712 716 720 725 728 732 735 737 739 741 743 744 745 747 749 750 750 752 755 757
655 661 651 649 655 654 651 650 645 643 647 646 642 643 647 649 650 651 651 647 649 658 657 653 658 661 654 649 644 635 632 632 632 636 639 639 640 639 640 640 641 644 648 651 653 653 654 656 657 659 662 663 665 667 669 672 674 676 679 682 685 688 691 695 700 704 709 713 717 722 725 728 731 733 736 738 739 741 743 745 747 747 749 751 753 755
652 662 656 653 660 657 650 648 648 647 648 648 646 643 641 642 644 647 649 647 649 652 649 649 659 658 645 637 634 631 631 631 631 633 635 636 636 637 639 639 638 638 641 644 648 650 651 654 656 657 659 661 662 663 666 669 671 674 676 679 682 685 688 692 697 701 706 710 714 718 722 725 727 730 733 735 736 738 741 743 745 747 748 750 752 754
651 661 656 659 672 668 653 652 652 647 648 653 650 644 641 641 642 642 641 643 647 651 651 654 661 656 641 632 632 632 633 634 634 633 633 632 631 633 638 639 637 637 637 638 643 647 649 651 653 653 654 656 658 660 663 665 668 671 673 675 679 682 686 690 694 700 704 707 712 715 719 722 724 727 730 732 734 736 738 742 744 745 747 748 750 752
648 658 658 664 677 671 658 655 652 653 669 672 655 642 639 637 636 635 633 634 636 641 650 655 652 643 634 633 636 635 635 637 636 633 631 630 630 631 633 635 636 634 633 634 639 643 646 646 647 647 648 650 653 656 659 661 665 668 670 673 677 680 683 687 692 697 701 705 709 712 716 720 722 724 727 730 733 736 737 740 742 743 744 746 748 750
643 655 658 660 670 670 658 651 656 671 685 670 640 631 634 632 631 630 626 626 627 629 633 636 635 632 631 633 636 634 631 632 631 628 625 625 629 630 627 627 631 630 628 632 636 641 643 643 642 644 645 647 650 653 657 660 662 666 669 672 676 678 682 685 690 695 699 703 707 710 714 718 720 723 726 729 732 735 736 738 740 741 743 745 747 748
641 654 658 656 662 665 655 657 679 689 670 641 625 625 626 626 626 626 621 616 617 620 622 623 626 627 627 626 627 627 625 622 622 622 620 618 621 623 621 623 626 626 626 630 634 639 641 641 640 641 642 644 647 650 654 657 660 664 667 670 674 677 681 684 689 694 698 702 705 709 713 717 719 722 725 727 730 732 734 736 737 739 741 743 744 746
645 653 656 655 659 663 662 671 686 676 645 627 627 623 620 624 626 630 631 620 608 610 617 619 619 619 620 621 618 618 618 618 618 619 615 613 614 614 615 618 620 621 625 628 631 634 636 636 635 636 638 640 643 646 650 653 656 660 663 667 672 676 680 684 688 693 697 700 703 707 711 714 718 721 723 725 728 730 733 734 736 738 739 741 742 743
645 652 655 658 660 662 668 669 665 658 646 638 636 630 627 631 629 634 645 635 612 605 610 614 616 615 613 614 614 612 613 617 623 620 610 607 609 607 608 610 611 615 619 622 624 625 627 629 630 633 636 638 640 643 646 649 653 656 660 665 670 674 678 682 687 691 695 698 701 705 709 713 716 719 722 724 727 730 732 733 735 736 737 739 740 741
640 646 653 662 660 658 666 668 664 667 663 648 641 635 629 629 626 629 644 643 623 610 606 608 614 615 610 610 611 611 615 624 632 623 607 602 603 603 604 606 606 608 611 614 618 619 622 625 626 629 633 635 637 640 642 646 650 654 659 663 668 672 676 680 685 689 693 696 700 704 708 712 715 718 721 724 727 729 731 733 734 735 736 737 738 739
638 641 646 658 662 658 666 673 669 667 659 645 640 636 629 628 625 631 650 650 628 614 610 606 610 613 610 610 609 610 621 635 637 621 606 602 600 599 604 606 605 606 607 609 613 616 619 622 625 628 631 633 635 638 641 644 648 652 658 662 666 671 674 678 683 687 691 695 699 703 707 710 714 717 720 723 726 729 731 732 734 735 736 736 737 738
641 643 647 657 661 658 663 667 660 651 644 636 635 634 631 628 628 647 672 661 631 621 620 614 612 608 604 607 609 611 621 632 632 619 604 598 595 595 601 606 606 606 605 606 609 613 617 621 624 626 628 630 633 635 639 642 645 650 656 661 665 669 673 678 683 687 691 695 698 703 706 709 713 716 718 721 724 727 729 731 732 734 735 736 737 739
642 641 645 653 656 655 661 664 656 644 635 630 631 631 628 630 642 663 671 652 633 629 625 619 616 608 601 606 612 613 612 613 614 612 604 598 597 599 602 604 603 603 603 604 607 612 617 621 624 626 627 630 633 635 637 640 644 650 656 660 664 669 673 678 683 686 691 694 698 702 706 709 712 715 716 719 721 724 727 728 730 732 734 736 737 738
643 641 643 648 650 648 651 658 659 650 634 626 628 626 627 642 659 658 644 632 631 630 624 620 619 612 608 610 609 607 605 602 604 608 608 606 606 607 606 605 605 605 604 605 609 613 617 620 623 626 628 631 634 636 638 641 645 650 655 660 664 669 674 678 682 685 689 693 697 702 706 710 713 716 717 719 719 721 724 727 728 730 733 734 735 737
632 640 644 643 643 645 649 657 665 658 636 624 628 630 633 645 650 639 629 627 627 625 624 623 619 615 613 612 608 606 605 604 606 610 612 611 609 608 608 608 608 609 609 610 613 615 617 620 623 625 628 630 633 637 641 644 646 650 655 660 664 669 673 677 680 684 688 693 696 701 704 708 713 718 721 720 720 720 723 726 728 729 732 734 735 737
618 629 638 634 633 641 650 652 649 640 626 621 630 636 635 635 632 629 630 629 625 624 627 625 622 619 615 612 611 611 609 609 612 614 615 613 610 609 611 611 611 613 614 614 615 616 618 621 623 626 630 632 634 639 644 647 648 651 656 661 666 670 674 678 682 686 690 695 698 702 703 704 710 717 721 722 722 722 723 726 728 730 732 734 735 737
623 621 627 629 628 630 635 635 630 625 622 622 628 633 632 628 626 626 628 628 627 626 625 626 627 624 617 613 614 614 615 617 618 617 616 614 612 612 613 614 614 615 616 616 617 619 620 623 625 629 632 635 638 642 646 648 650 653 658 663 667 670 674 678 682 686 690 695 701 704 705 705 709 714 718 721 723 724 725 727 729 730 732 733 735 736
632 624 624 629 632 632 632 632 630 628 626 625 628 632 629 626 625 625 627 630 629 627 626 628 629 626 620 617 616 618 620 620 619 619 618 616 615 614 615 616 616 616 617 619 621 623 624 627 630 632 635 638 640 643 646 649 652 656 661 665 668 672 675 679 682 685 689 694 699 703 705 706 710 714 716 719 723 725 725 727 728 729 731 732 734 734
633 629 625 628 637 645 647 643 637 634 631 629 632 634 629 626 628 628 630 632 630 628 629 630 629 628 625 622 621 623 622 620 622 625 624 623 623 621 619 620 621 620 622 624 626 628 629 631 633 634 635 638 641 643 647 652 655 659 663 667 671 674 677 680 684 687 690 694 698 701 704 708 713 716 716 718 721 723 725 726 727 728 729 730 731 732
638 634 631 631 636 644 650 648 640 639 637 633 634 636 632 629 629 629 631 634 633 633 633 632 632 633 632 630 629 628 626 625 628 630 630 631 631 629 628 629 628 627 628 629 630 631 632 633 635 636 637 640 643 646 650 653 657 661 665 669 672 676 679 682 685 688 691 694 697 699 703 708 713 716 716 717 719 721 723 725 726 727 728 728 729 730
640 638 637 637 639 644 650 648 643 644 646 643 641 640 636 633 633 633 635 638 638 638 639 639 640 640 639 638 636 634 634 634 632 631 634 636 636 636 635 635 634 634 634 635 636 636 637 638 639 640 642 644 647 649 652 656 659 663 666 669 673 676 679 682 685 688 691 694 696 699 703 708 711 713 715 717 718 720 722 723 724 725 726 727 728 728
643 645 645 646 652 654 651 646 644 648 653 652 649 646 642 639 639 641 644 645 645 645 645 647 648 647 646 645 642 641 642 640 636 636 638 641 641 641 639 637 637 638 638 640 642 642 642 643 644 645 647 650 652 654 657 659 662 665 667 670 673 676 679 682 685 687 690 693 696 699 703 706 709 711 714 716 719 721 722 723 724 724 725 727 728 729
650 652 650 652 661 661 651 643 643 647 653 655 654 652 648 644 643 647 650 651 651 650 650 652 653 653 652 651 648 647 647 645 642 642 644 646 648 646 643 642 641 641 642 645 646 646 647 648 649 650 652 654 656 658 660 662 664 667 669 672 675 677 680 682 684 687 690 693 696 700 703 705 707 710 713 715 717 720 722 723 725 725 726 728 729 730